Showing default

COSMOS 2168, 21782

Orbit data source: Space-Track

COSMOS 2168, 21782 is a payload satellite owned by UNKS RF (CIS) in LEO that was launched on Tue, 12 Nov 1991 UTC via a TSIKLON-3 launch vehicle from the Plesetsk Missile And Space Complex (PKMTR). Payload-class satellites include a variety of spacecraft equipped with specific instruments for various scientific and technological missions. These include communications satellites like Starlink; space stations such as the ISS; scientific satellites like the Hubble; Earth observation satellites from companies like Planet Labs, Umbra, and HawkEye 360; GPS; miniature CubeSats for education and research; and military/defense satellites.

Loading next visibility...
Identifier
21782, 1991-077D
Orbit
LEO
Last TLE update
22 hours ago
Origin
Manufacturer
NPO PM
Mission
Defense Communications
Bus & Motor
STRELA-3, Unknown motor
Mass
225 kg wet, 225 kg dry
Launch date (UTC)
1991-11-12 (33 years ago)
Launch vehicle
TSIKLON-3
Launch site
Plesetsk Missile And Space Complex (PKMTR)
Object type
Payload
Rocket body
Debris
Shape & HBR
Cyl, 1.6 m
Radar Cross Section
1.257 m², Large (>1 m²)

Expand to show TLE details & history

TLE from 22 hours ago
0 COSMOS 2168
1 21782U 91077D   25128.45301336  .00000024  00000-0  70019-4 0  9994
2 21782  82.5927 112.0538 0012606 223.7381 252.8258 12.65520707546851
Epoch: 2025-05-08T10:52Z
Definitive object data (Epoch: 2025-05-08T10:52:20.354Z)
Latitude
62.71236°
Longitude
-112.07753°
Altitude
1,413.879 km
Speed
7.158 km/s
True Right ascension
18h 30m 07s
True Declination
62° 35' 02"
Sunlit
Object was in daylight at TLE epoch
Visualization TLE readout
Latitude
49.76091°
Longitude
90.64077°
Altitude
1,417.758 km
Speed
7.152 km/s
Apparent Right ascension
06h 45m 04s
Apparent Declination
11° 11' 32"
Sunlit
Object is in daylight
Visualization observer readout
Local Sidereal Time
17:26:48
Azimuth
336.117° NNW
Elevation
-35.761°
Doppler factor
1
Orbital elements
Apogee altitude
1,407.358 km
Perigee altitude
1,387.754 km
Semi-major axis
7,775.693 km
Eccentricity
0.0012606
Inclination
82.5927°
RAAN
112.0538°
Arg. of periapsis
223.7381°
True anomaly
252.68785°
Mean anomaly
252.8258°
Eccentric anomaly
252.75682°
Mean motion
3.16544 °/min
BSTAR
0.000070019
Orbital period
113.73 mins
Loading maneuver chart data...
Loading SW <> Apogee altitude chart data...
Loading historical data...
Loading historical data...
Loading historical data...
Loading historical data...
Loading historical data...
Loading historical data...
Loading historical data...

COSMOS 2168 Visibility forecast

Observer location: undefined°, undefined°

Span
Click to sort rows by Start time (UTC) header in descending order
Start Az.
Max El. time (UTC)
Max El. Az.
Max El.
End time (UTC)
End Az.
14 mins2025-05-09 09:37:30.127Z7.668° NNE2025-05-09 09:44:30.127Z65.467° ENE30.513°2025-05-09 09:51:30.127Z133.599° SE
13 mins2025-05-09 11:33:30.127Z336.343° NNW2025-05-09 11:39:30.127Z277.11° WNW35.571°2025-05-09 11:46:30.127Z205.191° SW
12 mins2025-05-09 22:25:30.127Z140.529° SSE2025-05-09 22:31:30.127Z81.311° E29.985°2025-05-09 22:37:30.127Z27.957° NE
14 mins2025-05-10 00:19:30.127Z217.663° SW2025-05-10 00:25:30.127Z281.542° WNW36.226°2025-05-10 00:33:30.127Z356.635° N
5 mins2025-05-10 08:27:30.127Z45.849° ENE2025-05-10 08:29:30.127Z60.97° ENE12.411°2025-05-10 08:32:30.127Z82.89° E
|